Location: Little Chesterford
(52.0500°N, 0.1833°E)
Time: 04:12:42
(UTC+00:00)

Terra - Pass Details

Date: 26 September 2023
Orbit: 694 x 695 km, 98.1° (Epoch: 29 November)

Event Time Altitude Azimuth Distance (km) Brightness Sun altitude
Exits shadow 19:26:25 13° 59° (ENE) 1,969 3.8 -15.6°
Maximum altitude 19:27:00 13° 52° (NE) 1,954 3.8 -15.7°
Drops below altitude 10° 19:29:09 10° 24° (NNE) 2,166 4.3 -16.0°
Sets 19:32:34 0° 358° (N) 3,088 5.4 -16.5°
